[[{"header":{"parameterUnit":"m.s-1","parameterCategory":1,"la1":30.2991,"la2":30.254,"lo1":-89.0895,"lo2":-89.0444,"dy":0.0017,"dx":0.0017,"nx":28,"ny":28,"refTime":"2023-03-20T15:00:00:Z","depth":0,"parameterNumber":2,"parameterNumberName":"U-component_of_WINDS"},"data":[0,0,0,0,0,0,0,0,0,0,0,0,0,0,0,0,0,0,0,0,0,0,0,0,0,0,0,0,0,0,0,0,0,0,0,0,0,0,0,0,0,0,0,0,0,0,0,0,0,0,0,0,0,0,0,0,0,0,-2.2137,-2.2138,0,-2.2269,-2.2271,-2.2272,-2.2314,-2.2313,-2.2312,-2.2312,-2.2449,-2.2453,-2.2457,0,0,0,0,0,0,0,0,0,0,0,0,0,-2.1922,-2.1926,-2.2137,-2.2138,-2.214,-2.2269,-2.2271,-2.2273,-2.2314,-2.2313,-2.2312,-2.2311,-2.2448,-2.2453,-2.2458,0,0,0,0,0,0,0,0,0,0,0,0,0,-2.2031,-2.1927,-2.2136,-2.2176,-2.2181,-2.2269,-2.2271,-2.2273,-2.2314,-2.2313,-2.2312,-2.2311,-2.2446,-2.2452,-2.2458,-2.2516,0,0,-2.2478,-2.248,0,0,0,0,0,0,0,0,-2.2025,-2.2039,-2.2169,-2.2174,-2.2179,-2.2274,-2.2245,-2.2355,-2.2314,-2.2263,-2.2312,-2.2311,-2.2392,-2.2402,-2.2429,-2.2523,-2.2529,-2.2478,-2.2482,-2.2485,-2.2487,0,0,0,0,0,0,0,-2.2017,-2.2033,-2.2189,-2.217,-2.2177,-2.2188,-2.2203,-2.2266,-2.2331,-2.2268,-2.2271,-2.2286,-2.2394,-2.2423,-2.2433,-2.2531,-2.2478,-2.2484,-2.2488,-2.249,-2.268,-2.2681,0,0,0,0,0,0,-2.2003,-2.2027,-2.2185,-2.2193,-2.2098,-2.2193,-2.2209,-2.2244,-2.2331,-2.2343,-2.2287,-2.2288,-2.2413,-2.2425,-2.2438,-2.2511,-2.2485,-2.2491,-2.2494,-2.2678,-2.268,-2.2681,0,0,0,0,0,0,-2.1998,-2.2016,-2.218,-2.2111,-2.2133,-2.2197,-2.2237,-2.2248,-2.2276,-2.2345,-2.2357,-2.2304,-2.2412,-2.2429,-2.2497,-2.2517,-2.2494,-2.2499,-2.2677,-2.2679,-2.268,-2.2659,0,0,0,0,0,0,-2.1992,-2.2014,-2.2036,-2.2111,-2.2136,-2.2235,-2.2238,-2.2251,-2.2287,-2.2289,-2.2364,-2.2376,-2.2413,-2.2487,-2.2503,-2.2525,-2.2504,-2.2675,-2.2678,-2.268,-2.2658,-2.266,-2.2661,0,0,0,0,0,-2.1984,-2.2026,-2.2037,-2.2056,-2.2165,-2.2236,-2.2251,-2.2292,-2.2288,-2.2311,-2.2356,-2.2374,-2.2512,-2.2493,-2.2512,-2.2536,-2.2674,-2.2677,-2.268,-2.2657,-2.2659,-2.2661,0,0,0,0,0,0,-2.1952,-2.2036,-2.205,-2.2117,-2.2169,-2.2243,-2.2273,-2.2293,-2.2347,-2.2347,-2.2397,-2.2414,-2.2478,-2.2514,-2.2492,-2.2597,-2.2594,-2.2601,-2.2571,-2.2573,-2.2575,-2.2564,-2.251,0,0,0,0,0,-2.1953,-2.2003,-2.2074,-2.2126,-2.2152,-2.2208,-2.2241,-2.2268,-2.2324,-2.2347,-2.2396,-2.245,-2.2507,-2.2542,-2.2598,-2.2664,-2.2681,-2.269,-2.2692,-2.2693,-2.2697,-2.2735,-2.274,-2.269,-2.269,-2.269,0,0,-2.1955,-2.2007,-2.2036,-2.2121,-2.2165,-2.2216,-2.2226,-2.228,-2.2319,-2.2355,-2.2422,-2.246,-2.2524,-2.2592,-2.2624,-2.2624,-2.2715,-2.2696,-2.2696,-2.2701,-2.2739,-2.2743,-2.2748,-2.2692,-2.2692,-2.2691,0,0,-2.1984,-2.2029,-2.2077,-2.2121,-2.2187,-2.2224,-2.2236,-2.2307,-2.2334,-2.2401,-2.2429,-2.2477,-2.2573,-2.2617,-2.2652,-2.27,-2.2718,-2.2717,-2.2724,-2.2761,-2.2765,-2.2769,-2.2785,-2.2791,-2.2722,-2.2722,-2.2722,0,-2.1979,-2.2057,-2.21,-2.2153,-2.2189,-2.2224,-2.2274,-2.2315,-2.2395,-2.242,-2.2419,-2.254,-2.2586,-2.2664,-2.2676,-2.2703,-2.2718,-2.2708,-2.2761,-2.2765,-2.2769,-2.2786,-2.2792,-2.2721,-2.2721,-2.2721,-2.2721,0,-2.2046,-2.21,-2.2131,-2.2207,-2.2248,-2.2299,-2.2351,-2.2387,-2.2412,-2.2449,-2.2518,-2.2575,-2.2642,-2.2663,-2.2687,-2.2745,-2.2743,-2.2751,-2.2748,-2.2772,-2.2789,-2.2795,-2.272,-2.272,-2.272,-2.2721,0,0,-2.2058,-2.2158,-2.2169,-2.2204,-2.228,-2.2322,-2.2376,-2.2441,-2.2471,-2.2526,-2.2572,-2.2652,-2.266,-2.27,-2.273,-2.2762,-2.2796,-2.2767,-2.2769,-2.2769,-2.2863,-2.2856,-2.2862,-2.281,-2.2811,-2.2812,-2.2858,0,-2.2097,-2.2192,-2.2233,-2.2309,-2.2359,-2.2394,-2.244,-2.2492,-2.2529,-2.2578,-2.262,-2.2675,-2.2682,-2.2706,-2.274,-2.2785,-2.2816,-2.2783,-2.2853,-2.2855,-2.2834,-2.2871,-2.2863,-2.2903,-2.2864,-2.2865,-2.2866,0,-2.2154,-2.2209,-2.229,-2.236,-2.2382,-2.2423,-2.2486,-2.2533,-2.2593,-2.2618,-2.2662,-2.2691,-2.2749,-2.2744,-2.2824,-2.2801,-2.2832,-2.2859,-2.2862,-2.2869,-2.2861,-2.2878,-2.2917,-2.2922,-2.2877,-2.2876,-2.2875,0,-2.2154,-2.2248,-2.2308,-2.2338,-2.2421,-2.2448,-2.2485,-2.2544,-2.2581,-2.2637,-2.2661,-2.2723,-2.2757,-2.2805,-2.285,-2.2842,-2.2927,-2.2925,-2.2949,-2.2948,-2.2964,-2.2962,-2.3007,-2.2986,-2.2986,-2.2986,-2.2986,0,-2.2192,-2.224,-2.2309,-2.2346,-2.2402,-2.2449,-2.2503,-2.2542,-2.2594,-2.264,-2.2674,-2.2717,-2.2774,-2.2825,-2.2861,-2.2922,-2.2937,-2.2959,-2.2968,-2.2955,-2.2952,-2.2976,-2.2974,-2.2987,-2.2987,-2.2987,-2.2986,0,-2.22,-2.2248,-2.2317,-2.239,-2.241,-2.2447,-2.251,-2.2548,-2.2587,-2.2645,-2.2661,-2.2723,-2.2784,-2.2834,-2.2914,-2.2938,-2.3002,-2.3013,-2.2981,-2.2985,-2.3006,-2.3003,-2.3067,-2.3078,-2.305,-2.305,-2.305,0,-2.2221,-2.2258,-2.2336,-2.2368,-2.2404,-2.2457,-2.2494,-2.2543,-2.2581,-2.2652,-2.2682,-2.2745,-2.2798,-2.2894,-2.2947,-2.3008,-2.302,-2.3038,-2.303,-2.3016,-2.302,-2.3016,-2.302,-2.3039,-2.3039,-2.3039,-2.3039,0,-2.2252,-2.2274,-2.2326,-2.2387,-2.2431,-2.2482,-2.2533,-2.2559,-2.2617,-2.2658,-2.272,-2.2761,-2.2843,-2.2906,-2.2973,-2.3011,-2.3035,-2.3041,-2.305,-2.3037,-2.3017,-2.3027,-2.2982,-2.3039,-2.3039,-2.3039,-2.3039,-2.3039,-2.2267,-2.2302,-2.2361,-2.2419,-2.2463,-2.251,-2.2549,-2.2593,-2.2646,-2.2715,-2.2741,-2.2805,-2.2865,-2.2958,-2.2997,-2.3048,-2.3051,-2.3063,-2.3066,-2.3069,-2.3066,-2.3009,-2.3061,-2.3061,-2.3061,-2.3061,-2.3061,0,-2.2299,-2.2339,-2.2392,-2.2462,-2.2508,-2.2526,-2.2584,-2.2621,-2.2676,-2.273,-2.2781,-2.2853,-2.2914,-2.2972,-2.3036,-2.3066,-2.3078,-2.3081,-2.3079,-2.3087,-2.3061,-2.3046,-2.307,-2.307,-2.307,-2.307,-2.307,-2.307,-2.2321,-2.2381,-2.2411,-2.2493,-2.2534,-2.2595,-2.2627,-2.2671,-2.2714,-2.2793,-2.2843,-2.288,-2.2936,-2.3004,-2.3061,-2.3077,-2.3098,-2.3098,-2.3116,-2.309,-2.3089,-2.3087,-2.3074,-2.3103,-2.3103,-2.3138,-2.3139,-2.3139]},{"header":{"parameterUnit":"m.s-1","parameterCategory":1,"la1":30.2991,"la2":30.254,"lo1":-89.0895,"lo2":-89.0444,"dy":0.0017,"dx":0.0017,"nx":28,"ny":28,"refTime":"2023-03-20T15:00:00:Z","depth":0,"parameterNumber":3,"parameterNumberName":"V-component_of_WINDS"},"data":[0,0,0,0,0,0,0,0,0,0,0,0,0,0,0,0,0,0,0,0,0,0,0,0,0,0,0,0,0,0,0,0,0,0,0,0,0,0,0,0,0,0,0,0,0,0,0,0,0,0,0,0,0,0,0,0,0,0,4.3005,4.3006,0,4.3023,4.3024,4.3024,4.294,4.2937,4.2935,4.2933,4.2948,4.2951,4.2953,0,0,0,0,0,0,0,0,0,0,0,0,0,4.2895,4.2897,4.3005,4.3006,4.3006,4.3023,4.3024,4.3024,4.294,4.2937,4.2934,4.2931,4.2947,4.295,4.2954,0,0,0,0,0,0,0,0,0,0,0,0,0,4.2931,4.2898,4.3005,4.2966,4.2963,4.3023,4.3024,4.3024,4.2941,4.2937,4.2933,4.293,4.2946,4.295,4.2954,4.3052,0,0,4.2966,4.2968,0,0,0,0,0,0,0,0,4.2929,4.2935,4.2972,4.2969,4.2965,4.2976,4.299,4.3033,4.2942,4.2949,4.2932,4.2928,4.296,4.2963,4.2974,4.3053,4.3053,4.2967,4.2969,4.2971,4.2972,0,0,0,0,0,0,0,4.2926,4.2934,4.3012,4.2972,4.2968,4.2947,4.2948,4.2998,4.2975,4.2948,4.2942,4.2946,4.2957,4.297,4.2974,4.3054,4.2967,4.297,4.2973,4.2974,4.3212,4.3216,0,0,0,0,0,0,4.293,4.2932,4.3012,4.3013,4.2938,4.2952,4.2953,4.2976,4.2974,4.297,4.2949,4.2942,4.2965,4.2969,4.2974,4.3087,4.2971,4.2975,4.2977,4.3209,4.3213,4.3217,0,0,0,0,0,0,4.2928,4.2937,4.3011,4.2971,4.2979,4.2957,4.2984,4.2978,4.2991,4.2974,4.2969,4.2966,4.2962,4.2968,4.3033,4.3086,4.2976,4.298,4.3204,4.321,4.3215,4.3315,0,0,0,0,0,0,4.2925,4.2937,4.2975,4.2972,4.2981,4.3071,4.2987,4.2981,4.2998,4.2989,4.299,4.2986,4.296,4.3028,4.3037,4.309,4.2983,4.3199,4.3207,4.3213,4.3307,4.3324,4.3338,0,0,0,0,0,4.2921,4.3002,4.2977,4.2987,4.3028,4.3074,4.3079,4.3049,4.3003,4.304,4.303,4.2986,4.308,4.3035,4.3045,4.31,4.3195,4.3204,4.3213,4.33,4.3321,4.3338,0,0,0,0,0,0,4.301,4.3001,4.2973,4.3056,4.3067,4.306,4.3106,4.3071,4.3094,4.3085,4.3045,4.3046,4.3117,4.3115,4.3065,4.3194,4.3129,4.3141,4.3192,4.3212,4.3227,4.3225,4.2987,0,0,0,0,0,4.304,4.3079,4.3069,4.3143,4.315,4.3127,4.3146,4.3122,4.3131,4.3135,4.3129,4.3138,4.3169,4.3191,4.3219,4.3307,4.3305,4.335,4.3366,4.3378,4.3388,4.3433,4.3452,4.3246,4.3246,4.3246,0,0,4.3101,4.3101,4.3128,4.3161,4.3166,4.3206,4.3131,4.3178,4.3207,4.3141,4.3202,4.3198,4.3206,4.3283,4.3316,4.3283,4.3445,4.339,4.34,4.3402,4.3444,4.3464,4.3481,4.3252,4.3251,4.325,0,0,4.3232,4.3237,4.3298,4.3305,4.3315,4.33,4.3315,4.3313,4.3308,4.3369,4.332,4.3354,4.341,4.3417,4.3428,4.3563,4.3523,4.3573,4.3653,4.3698,4.3714,4.3728,4.3774,4.3792,4.3583,4.3583,4.3583,0,4.3306,4.3366,4.3334,4.3383,4.3399,4.3343,4.3404,4.3412,4.343,4.3441,4.3405,4.3473,4.3474,4.3551,4.3584,4.3596,4.361,4.3572,4.3715,4.3728,4.3741,4.3785,4.3802,4.3589,4.3588,4.3588,4.3587,0,4.3455,4.3498,4.3546,4.3566,4.3587,4.3642,4.3617,4.3642,4.3617,4.3605,4.3667,4.3667,4.3693,4.371,4.3686,4.3784,4.3763,4.3722,4.3655,4.3767,4.3807,4.3824,4.3598,4.3595,4.3594,4.3592,0,0,4.3641,4.3643,4.3661,4.3669,4.3676,4.3707,4.376,4.3787,4.3808,4.3823,4.3864,4.3913,4.3875,4.3887,4.3863,4.3902,4.4007,4.3855,4.3855,4.3882,4.4113,4.4143,4.4163,4.3982,4.3985,4.3987,4.4112,0,4.3768,4.3858,4.3831,4.3921,4.3959,4.3907,4.3952,4.3961,4.3952,4.3982,4.3971,4.4005,4.3953,4.396,4.3997,4.3986,4.4052,4.3977,4.4018,4.402,4.4016,4.4184,4.4216,4.4334,4.4128,4.413,4.4132,0,4.3928,4.3949,4.4044,4.4044,4.4058,4.41,4.4122,4.4152,4.416,4.4151,4.4165,4.4133,4.4183,4.4119,4.4186,4.4136,4.4151,4.4149,4.4152,4.4153,4.4081,4.4188,4.4371,4.4388,4.4157,4.4155,4.4153,0,4.4052,4.4104,4.4167,4.4176,4.4178,4.4208,4.421,4.4215,4.4232,4.4252,4.4263,4.4288,4.4301,4.4321,4.4295,4.4251,4.4366,4.43,4.4358,4.4359,4.4382,4.4381,4.4568,4.4397,4.4396,4.4396,4.4396,0,4.4195,4.4254,4.4223,4.4261,4.4325,4.4294,4.4358,4.4354,4.4359,4.4395,4.4352,4.4386,4.4351,4.4382,4.4363,4.4421,4.4428,4.442,4.4414,4.4423,4.4424,4.4431,4.4421,4.4401,4.44,4.4399,4.4398,0,4.4343,4.4325,4.4389,4.4386,4.4387,4.4434,4.4431,4.4466,4.4454,4.45,4.4509,4.449,4.4524,4.4502,4.4536,4.4523,4.4598,4.4582,4.4596,4.459,4.4649,4.4643,4.4846,4.487,4.4684,4.4686,4.4688,0,4.4434,4.4479,4.4481,4.4502,4.4507,4.4542,4.456,4.4531,4.4552,4.4565,4.4598,4.4628,4.4651,4.4708,4.4697,4.4723,4.4705,4.4774,4.4708,4.4716,4.4704,4.47,4.4704,4.4787,4.4789,4.4791,4.4792,0,4.4598,4.4587,4.4615,4.4641,4.4664,4.4682,4.4697,4.4717,4.4687,4.4712,4.4747,4.4765,4.4801,4.4831,4.4853,4.4853,4.4818,4.4814,4.4828,4.4836,4.4842,4.4838,4.463,4.4808,4.4807,4.4806,4.4805,4.4804,4.4719,4.4756,4.4763,4.4796,4.4804,4.4819,4.4851,4.4844,4.4873,4.49,4.4881,4.4922,4.4928,4.4954,4.4959,4.499,4.4962,4.4983,4.4988,4.4993,4.5001,4.4839,4.4994,4.4994,4.4993,4.4993,4.4992,0,4.4879,4.4881,4.4912,4.4934,4.496,4.4926,4.494,4.4964,4.5001,4.501,4.5034,4.5074,4.5103,4.5095,4.5121,4.5148,4.5132,4.5155,4.5152,4.5152,4.5025,4.5009,4.5167,4.5167,4.5167,4.5167,4.5167,4.5167,4.4965,4.5024,4.5014,4.5077,4.5079,4.5119,4.513,4.5143,4.5151,4.5197,4.5222,4.5217,4.5219,4.5245,4.527,4.5267,4.5278,4.5307,4.5298,4.5179,4.5161,4.5145,4.5129,4.531,4.531,4.5422,4.5423,4.5423]}]]